Time,TemperatureF,DewpointF,PressureIn,WindDirection,WindDirectionDegrees,WindSpeedMPH,WindSpeedGustMPH,Humidity,HourlyPrecipIn,Conditions,Clouds,dailyrainin,SoftwareType,DateUTC
2013-06-16 18:01:00,80.0,68.0,30.00,SSW,196,0.0,-999.0,67,-99.99,,,-99.99,,2013-06-16 22:01:00,
2013-06-16 18:12:00,79.0,69.0,30.00,SSW,198,0.0,-999.0,72,-99.99,,,-99.99,,2013-06-16 22:12:00,
2013-06-16 18:22:00,79.0,69.0,29.99,South,170,0.0,-999.0,72,-99.99,,,-99.99,,2013-06-16 22:22:00,
2013-06-16 18:32:00,79.0,69.0,29.99,South,170,0.0,-999.0,72,-99.99,,,-99.99,,2013-06-16 22:32:00,
2013-06-16 18:42:00,78.0,67.0,29.99,SSW,192,1.0,-999.0,70,-99.99,,,-99.99,,2013-06-16 22:42:00,
2013-06-16 18:52:00,78.0,67.0,29.99,SSW,192,1.0,-999.0,70,-99.99,,,-99.99,,2013-06-16 22:52:00,
2013-06-16 19:02:00,78.0,69.0,29.99,South,171,0.0,-999.0,73,-99.99,,,-99.99,,2013-06-16 23:02:00,
2013-06-16 19:11:00,79.0,70.0,29.99,SSE,164,0.0,-999.0,73,-99.99,,,-99.99,,2013-06-16 23:11:00,
2013-06-16 19:22:00,79.0,70.0,29.99,SSE,164,0.0,-999.0,73,-99.99,,,-99.99,,2013-06-16 23:22:00,
2013-06-16 19:32:00,78.0,69.0,29.99,South,188,0.0,-999.0,73,-99.99,,,-99.99,,2013-06-16 23:32:00,
2013-06-16 19:42:00,77.0,68.0,29.99,South,180,0.0,-999.0,73,-99.99,,,-99.99,,2013-06-16 23:42:00,
2013-06-16 19:52:00,76.0,67.0,29.99,SSE,163,0.0,-999.0,73,-99.99,,,-99.99,,2013-06-16 23:52:00,
2013-06-16 20:02:00,76.0,67.0,29.99,SSE,163,0.0,-999.0,73,-99.99,,,-99.99,,2013-06-17 00:02:00,
2013-06-16 20:11:00,76.0,67.0,30.00,SSE,163,0.0,-999.0,75,-99.99,,,-99.99,,2013-06-17 00:11:00,
2013-06-16 20:22:00,75.0,67.0,29.99,SSE,163,0.0,-999.0,76,-99.99,,,-99.99,,2013-06-17 00:22:00,
2013-06-16 20:32:00,75.0,67.0,29.99,SSE,163,0.0,-999.0,76,-99.99,,,-99.99,,2013-06-17 00:32:00,
2013-06-16 20:43:00,74.0,66.0,30.00,SSE,163,0.0,-999.0,77,-99.99,,,-99.99,,2013-06-17 00:43:00,
2013-06-16 20:52:00,74.0,66.0,30.00,SSE,163,0.0,-999.0,77,-99.99,,,-99.99,,2013-06-17 00:52:00,
2013-06-16 21:02:00,74.0,66.0,30.00,SSE,163,0.0,-999.0,77,-99.99,,,-99.99,,2013-06-17 01:02:00,
2013-06-16 21:12:00,74.0,67.0,30.00,SSE,163,0.0,-999.0,78,-99.99,,,-99.99,,2013-06-17 01:12:00,
2013-06-16 21:22:00,74.0,67.0,30.00,SSE,163,0.0,-999.0,78,-99.99,,,-99.99,,2013-06-17 01:22:00,
2013-06-16 21:32:00,74.0,67.0,30.00,SSE,163,0.0,-999.0,78,-99.99,,,-99.99,,2013-06-17 01:32:00,
2013-06-16 21:43:00,74.0,67.0,30.00,SSE,163,0.0,-999.0,78,-99.99,,,-99.99,,2013-06-17 01:43:00,
2013-06-16 21:53:00,74.0,67.0,30.00,SSE,163,0.0,-999.0,78,-99.99,,,-99.99,,2013-06-17 01:53:00,
2013-06-16 22:02:00,74.0,67.0,30.01,NW,316,0.0,-999.0,78,-99.99,,,-99.99,,2013-06-17 02:02:00,
2013-06-16 22:12:00,74.0,67.0,30.01,NW,305,0.0,-999.0,78,-99.99,,,-99.99,,2013-06-17 02:12:00,
2013-06-16 22:22:00,73.0,66.0,30.01,NW,304,0.0,-999.0,79,-99.99,,,-99.99,,2013-06-17 02:22:00,
2013-06-16 22:34:00,73.0,66.0,30.01,NW,304,0.0,-999.0,79,-99.99,,,-99.99,,2013-06-17 02:34:00,
2013-06-16 22:43:00,73.0,66.0,30.01,NW,304,0.0,-999.0,79,-99.99,,,-99.99,,2013-06-17 02:43:00,
2013-06-16 22:53:00,73.0,66.0,30.01,NW,304,0.0,-999.0,79,-99.99,,,-99.99,,2013-06-17 02:53:00,
2013-06-16 23:02:00,72.0,65.0,30.02,NW,304,0.0,-999.0,80,-99.99,,,-99.99,,2013-06-17 03:02:00,
2013-06-16 23:12:00,71.0,65.0,30.02,NW,304,0.0,-999.0,81,-99.99,,,-99.99,,2013-06-17 03:12:00,
2013-06-16 23:22:00,71.0,65.0,30.02,NW,304,0.0,-999.0,81,-99.99,,,-99.99,,2013-06-17 03:22:00,
2013-06-16 23:33:00,71.0,65.0,30.02,NW,305,0.0,-999.0,81,-99.99,,,-99.99,,2013-06-17 03:33:00,
2013-06-16 23:44:00,71.0,65.0,30.01,NW,305,0.0,-999.0,82,-99.99,,,-99.99,,2013-06-17 03:44:00,
2013-06-16 23:53:00,71.0,65.0,30.01,NW,304,0.0,-999.0,82,-99.99,,,-99.99,,2013-06-17 03:53:00,